When you browse on this site, cookies collect data to enhance your experience and personalize the content and advertising you see.
Visit our Privacy Policy to learn more. By continuing to use the site, you agree to this use of cookies and data.
  • In Lithuania
  • List of Countries
  • For 7 days
  • Water Temperature
  • Satellite Maps
  • Weather Map
  • Weather Widgets
  • user-avatar
    Login

    Hourly Weather Saint John's

    Today, 22 May, Wednesday

    Time Temperature Precipitation Wind Pressure Humidity
    00:00 -1°C° 0.3 mm 7 mps 744 mmHg 98%
    01:00 -1°C° 0.3 mm 8 mps 744 mmHg 98%
    02:00 -1°C° 0 mm 7 mps 743 mmHg 98%
    03:00 -1°C° 0.6 mm 8 mps 743 mmHg 98%
    04:00 -1°C° 0.6 mm 9 mps 742 mmHg 97%
    05:00 -1°C° 0.6 mm 9 mps 742 mmHg 97%
    06:00 -1°C° 2.4 mm 9 mps 741 mmHg 97%
    07:00 -1°C° 2.4 mm 9 mps 741 mmHg 98%
    08:00 -1°C° 2.4 mm 8 mps 741 mmHg 98%
    09:00 -1°C° 2 mm 9 mps 741 mmHg 99%
    10:00 -1°C° 2 mm 9 mps 741 mmHg 99%
    11:00 -2°C° 2 mm 10 mps 741 mmHg 99%
    12:00 -2°C° 0.8 mm 10 mps 741 mmHg 99%
    13:00 -2°C° 0.8 mm 10 mps 741 mmHg 99%
    14:00 -2°C° 0.8 mm 10 mps 741 mmHg 99%
    15:00 -2°C° 0.1 mm 10 mps 741 mmHg 98%
    16:00 -2°C° 0.1 mm 11 mps 741 mmHg 97%
    17:00 -2°C° 0.1 mm 11 mps 741 mmHg 96%
    18:00 -2°C° 0.1 mm 11 mps 741 mmHg 96%
    19:00 -2°C° 0.1 mm 11 mps 741 mmHg 96%
    20:00 -2°C° 0.1 mm 11 mps 741 mmHg 95%
    21:00 -1°C° 0.2 mm 11 mps 741 mmHg 95%
    22:00 -1°C° 0.2 mm 11 mps 741 mmHg 96%
    23:00 -1°C° 0.2 mm 11 mps 741 mmHg 96%

    Tomorrow, 23 May, Thursday

    Time Temperature Precipitation Wind Pressure Humidity
    00:00 -1°C° 0.1 mm 11 mps 741 mmHg 96%
    01:00 -1°C° 0.1 mm 11 mps 741 mmHg 96%
    02:00 -1°C° 0.1 mm 11 mps 741 mmHg 96%
    03:00 -1°C° 0.2 mm 11 mps 741 mmHg 96%
    04:00 -1°C° 0.2 mm 11 mps 742 mmHg 96%
    05:00 +1°C° 0.2 mm 11 mps 742 mmHg 95%
    06:00 +1°C° 0.2 mm 11 mps 742 mmHg 95%
    07:00 +1°C° 0.2 mm 11 mps 743 mmHg 95%
    08:00 +1°C° 0.2 mm 10 mps 743 mmHg 95%
    09:00 +1°C° 0.3 mm 10 mps 744 mmHg 95%
    10:00 +2°C° 0.3 mm 10 mps 744 mmHg 95%
    11:00 +2°C° 0.3 mm 9 mps 744 mmHg 94%
    12:00 +2°C° 0 mm 9 mps 744 mmHg 93%
    13:00 +3°C° 0 mm 9 mps 744 mmHg 93%
    14:00 +3°C° 0 mm 9 mps 745 mmHg 92%
    15:00 +4°C° 0 mm 8 mps 745 mmHg 92%
    16:00 +4°C° 0 mm 8 mps 745 mmHg 92%
    17:00 +4°C° 0 mm 7 mps 745 mmHg 92%
    18:00 +3°C° 0 mm 7 mps 745 mmHg 92%
    19:00 +3°C° 0 mm 7 mps 746 mmHg 92%
    20:00 +3°C° 0 mm 7 mps 746 mmHg 92%
    21:00 +2°C° 0 mm 7 mps 746 mmHg 92%
    22:00 +2°C° 0 mm 7 mps 746 mmHg 93%
    23:00 0°C° 0 mm 7 mps 746 mmHg 93%

    Day after tomorrow, 24 May, Friday

    Time Temperature Precipitation Wind Pressure Humidity
    00:00 0°C° 0 mm 7 mps 746 mmHg 93%
    01:00 0°C° 0 mm 7 mps 746 mmHg 94%
    02:00 0°C° 0 mm 7 mps 746 mmHg 94%
    03:00 0°C° 0 mm 7 mps 746 mmHg 94%
    04:00 0°C° 0 mm 7 mps 746 mmHg 93%
    05:00 +2°C° 0 mm 6 mps 746 mmHg 93%
    06:00 +2°C° 0 mm 6 mps 747 mmHg 92%
    07:00 +3°C° 0 mm 6 mps 747 mmHg 91%
    08:00 +3°C° 0 mm 6 mps 747 mmHg 90%
    09:00 +5°C° 0 mm 5 mps 747 mmHg 88%
    10:00 +5°C° 0 mm 5 mps 748 mmHg 87%
    11:00 +6°C° 0 mm 4 mps 748 mmHg 85%
    12:00 +6°C° 0 mm 4 mps 748 mmHg 84%
    13:00 +7°C° 0 mm 4 mps 748 mmHg 83%
    14:00 +7°C° 0 mm 4 mps 749 mmHg 82%
    15:00 +7°C° 0 mm 4 mps 749 mmHg 82%
    16:00 +8°C° 0 mm 3 mps 749 mmHg 82%
    17:00 +8°C° 0 mm 3 mps 749 mmHg 82%
    18:00 +8°C° 0 mm 3 mps 749 mmHg 84%
    19:00 +7°C° 0 mm 3 mps 750 mmHg 87%
    20:00 +5°C° 0 mm 3 mps 750 mmHg 89%
    21:00 +5°C° 0 mm 4 mps 750 mmHg 90%
    22:00 +5°C° 0 mm 5 mps 750 mmHg 90%
    23:00 +5°C° 0 mm 5 mps 750 mmHg 90%

    25 May, Saturday

    Time Temperature Precipitation Wind Pressure Humidity
    00:00 +3°C° 0 mm 5 mps 750 mmHg 91%
    01:00 +3°C° 0 mm 5 mps 750 mmHg 92%
    02:00 +4°C° 0 mm 4 mps 750 mmHg 93%
    03:00 +4°C° 0 mm 4 mps 750 mmHg 91%
    04:00 +5°C° 0 mm 4 mps 750 mmHg 89%
    05:00 +5°C° 0 mm 4 mps 751 mmHg 87%
    06:00 +7°C° 0 mm 4 mps 751 mmHg 81%
    07:00 +10°C° 0 mm 3 mps 751 mmHg 75%
    08:00 +12°C° 0 mm 3 mps 752 mmHg 69%
    09:00 +13°C° 0 mm 3 mps 752 mmHg 64%
    10:00 +16°C° 0 mm 3 mps 752 mmHg 58%
    11:00 +17°C° 0 mm 2 mps 752 mmHg 52%
    12:00 +16°C° 0 mm 3 mps 752 mmHg 54%
    13:00 +14°C° 0 mm 3 mps 752 mmHg 57%
    14:00 +13°C° 0 mm 4 mps 752 mmHg 59%
    15:00 +12°C° 0 mm 4 mps 752 mmHg 63%
    16:00 +10°C° 0 mm 3 mps 752 mmHg 66%
    17:00 +9°C° 0 mm 3 mps 752 mmHg 70%
    18:00 +8°C° 0 mm 3 mps 752 mmHg 73%
    19:00 +6°C° 0 mm 4 mps 753 mmHg 77%
    20:00 +5°C° 0 mm 4 mps 753 mmHg 80%
    21:00 +4°C° 0 mm 4 mps 752 mmHg 81%
    22:00 +3°C° 0 mm 5 mps 752 mmHg 82%
    23:00 +3°C° 0 mm 5 mps 752 mmHg 83%

    26 May, Sunday

    Time Temperature Precipitation Wind Pressure Humidity
    00:00 +2°C° 0 mm 5 mps 752 mmHg 85%
    01:00 +2°C° 0 mm 5 mps 752 mmHg 87%
    02:00 +1°C° 0 mm 6 mps 751 mmHg 90%
    03:00 +1°C° 0 mm 6 mps 751 mmHg 90%
    04:00 0°C° 0 mm 7 mps 751 mmHg 91%
    05:00 0°C° 0 mm 7 mps 751 mmHg 92%
    06:00 +2°C° 0 mm 7 mps 752 mmHg 90%
    07:00 +2°C° 0 mm 7 mps 752 mmHg 89%
    08:00 +2°C° 0 mm 7 mps 752 mmHg 87%
    09:00 +3°C° 0 mm 7 mps 752 mmHg 82%
    10:00 +4°C° 0 mm 7 mps 752 mmHg 76%
    11:00 +5°C° 0 mm 7 mps 752 mmHg 71%
    12:00 +7°C° 0 mm 6 mps 752 mmHg 69%
    13:00 +8°C° 0 mm 6 mps 752 mmHg 68%
    14:00 +8°C° 0 mm 5 mps 752 mmHg 66%
    15:00 +8°C° 0 mm 5 mps 752 mmHg 67%
    16:00 +7°C° 0 mm 4 mps 752 mmHg 69%
    17:00 +7°C° 0 mm 4 mps 753 mmHg 71%
    18:00 +5°C° 0 mm 3 mps 753 mmHg 78%
    19:00 +5°C° 0 mm 2 mps 753 mmHg 85%
    20:00 +3°C° 0 mm 2 mps 754 mmHg 93%
    21:00 +3°C° 0 mm 2 mps 754 mmHg 93%
    22:00 +3°C° 0 mm 2 mps 754 mmHg 94%
    23:00 +3°C° 0 mm 2 mps 754 mmHg 94%

    27 May, Monday

    Time Temperature Precipitation Wind Pressure Humidity
    00:00 +3°C° 0 mm 2 mps 754 mmHg 95%
    01:00 +2°C° 0 mm 3 mps 754 mmHg 96%
    02:00 +2°C° 0 mm 3 mps 754 mmHg 97%
    03:00 +3°C° 0 mm 3 mps 754 mmHg 93%
    04:00 +3°C° 0 mm 3 mps 754 mmHg 90%
    05:00 +5°C° 0 mm 2 mps 754 mmHg 86%
    06:00 +7°C° 0 mm 2 mps 754 mmHg 77%
    07:00 +10°C° 0 mm 2 mps 754 mmHg 69%
    08:00 +13°C° 0 mm 2 mps 754 mmHg 60%
    09:00 +13°C° 0 mm 3 mps 754 mmHg 59%
    10:00 +13°C° 0 mm 4 mps 754 mmHg 58%
    11:00 +14°C° 0 mm 5 mps 754 mmHg 57%
    12:00 +13°C° 0 mm 5 mps 754 mmHg 59%
    13:00 +13°C° 0 mm 6 mps 754 mmHg 61%
    14:00 +11°C° 0 mm 6 mps 753 mmHg 63%
    15:00 +10°C° 0.1 mm 6 mps 753 mmHg 69%
    16:00 +8°C° 0.1 mm 6 mps 753 mmHg 76%
    17:00 +6°C° 0.1 mm 5 mps 753 mmHg 82%
    18:00 +6°C° 0.1 mm 5 mps 753 mmHg 85%
    19:00 +5°C° 0.1 mm 5 mps 753 mmHg 88%
    20:00 +3°C° 0.1 mm 5 mps 753 mmHg 91%
    21:00 +3°C° 0.1 mm 5 mps 753 mmHg 92%
    22:00 +2°C° 0.1 mm 6 mps 753 mmHg 92%
    23:00 +2°C° 0.1 mm 6 mps 752 mmHg 92%
    Show more